Stations météo

réclame
Mon MeteoGroup
Potsdam, Allemagne (10379): Température de l'air & dewpoint: 12.01.2019 12:00:00 - 18.01.2019 12:00:00 (CET)Potsdam, Allemagne (10379): Température de l'air 5cm & Température de l'air -5cm: 12.01.2019 12:00:00 - 18.01.2019 12:00:00 (CET)Potsdam, Allemagne (10379): Température de l'air -20cm & Température de l'air -100cm: 12.01.2019 12:00:00 - 18.01.2019 12:00:00 (CET)Potsdam, Allemagne (10379): Vitesse du vent & gusts: 12.01.2019 12:00:00 - 18.01.2019 12:00:00 (CET)Potsdam, Allemagne (10379): Direction du vent: 12.01.2019 12:00:00 - 18.01.2019 12:00:00 (CET)Potsdam, Allemagne (10379): reduced air pressure: 12.01.2019 12:00:00 - 18.01.2019 12:00:00 (CET)Potsdam, Allemagne (10379): visibility: 12.01.2019 12:00:00 - 18.01.2019 12:00:00 (CET)Potsdam, Allemagne (10379): Ensoleillement: 12.01.2019 12:00:00 - 18.01.2019 12:00:00 (CET)Potsdam, Allemagne (10379): Quantités de précipitations: 12.01.2019 12:00:00 - 18.01.2019 12:00:00 (CET)
Date & Time tt [°C] td [°C] tt 5cm [°C] tt -5cm [°C] tt -20cm [°C] tt -100cm [°C] ff [km/h] ff [knt] fx [km/h] fx [knt] dd ppp [hPa] vv [km] sd [min] rr [mm]
18.01.2019 12:00:00 0,2 -4,2 -1,4 0,3 1,7 4,9 17 9 27 14 W 1018,0 55 60 0,0
18.01.2019 11:00:00 -0,7 -3,5 -2,1 0,4 1,8 4,9 17 9 32 17 WNW 1017,7 55 60 0,0
18.01.2019 10:00:00 -1,5 -3,8 -2,8 0,4 1,9 4,9 18 10 33 18 WNW 1016,9 55 60 0,0
18.01.2019 09:00:00 -1,7 -4,5 -3,2 0,5 2,0 4,9 16 9 32 18 WNW 1015,8 50 12 0,0
18.01.2019 08:00:00 -1,2 -5,0 -2,4 0,5 2,0 4,9 21 12 40 22 WNW 1014,2 50 0 0,0
18.01.2019 07:00:00 -0,9 -4,6 -2,0 0,6 2,1 4,9 22 12 43 23 NW 1012,5 50 0 0,2
18.01.2019 06:00:00 -0,3 -2,3 -0,9 0,6 2,2 4,9 23 12 40 22 WNW 1011,0 48 0 0,0
18.01.2019 05:00:00 -0,7 -1,8 -1,2 0,7 2,4 4,9 22 12 37 20 WNW 1009,9 48 0 0,0
18.01.2019 04:00:00 -0,9 -2,7 -1,7 0,8 2,5 4,9 16 9 41 22 NW 1008,6 25 0 0,0
18.01.2019 03:00:00 -0,7 -1,7 -0,6 0,9 2,7 4,9 19 10 55 30 NW 1007,3 18 0 0,2
18.01.2019 02:00:00 1,1 -1,1 0,4 1,4 2,8 4,9 29 15 49 27 W 1004,8 28 0 0,0
18.01.2019 01:00:00 1,4 -0,4 0,8 1,4 3,0 4,9 29 16 47 26 W 1004,2 23 0 0,5
18.01.2019 00:00:00 1,8 0,1 1,3 2,0 3,1 4,9 21 11 44 24 WSW 1003,6 40 0 0,0
17.01.2019 23:00:00 1,9 0,5 1,2 2,3 3,2 4,9 23 12 45 24 WSW 1002,9 35 0 0,1
17.01.2019 22:00:00 2,5 1,7 2,1 2,5 3,2 4,9 22 12 43 23 WSW 1002,0 28 0 0,0
17.01.2019 21:00:00 2,3 1,8 2,1 2,6 3,2 4,9 21 12 34 19 W 1001,1 35 0 0,0
17.01.2019 20:00:00 2,1 1,5 1,9 2,6 3,3 4,9 21 11 40 22 W 999,8 30 0 1,0
17.01.2019 19:00:00 2,8 2,2 2,4 2,8 3,4 4,9 18 10 38 21 W 999,0 10 0 2,4
17.01.2019 18:00:00 3,9 2,3 3,2 2,8 3,5 4,9 21 12 36 20 W 998,7 10 0 0,6
17.01.2019 17:00:00 4,5 0,9 2,3 2,6 3,6 4,9 15 8 27 15 SSW 998,5 40 0 0,0
17.01.2019 16:00:00 5,1 0,4 2,4 3,4 3,7 4,9 14 7 38 21 SW 998,7 40 25 0,0
17.01.2019 15:00:00 6,2 -0,1 5,2 4,0 3,6 4,9 25 14 41 22 WSW 998,9 50 37 0,0
17.01.2019 14:00:00 6,5 0,3 5,3 4,3 3,5 4,9 22 12 38 20 WSW 999,3 50 41 0,0
17.01.2019 13:00:00 6,0 1,1 5,7 4,6 3,3 4,9 16 8 36 19 WSW 1000,1 50 0 0,0
17.01.2019 12:00:00 5,7 1,5 5,5 4,0 3,2 4,9 19 10 34 18 WSW 1000,5 45 0 0,0
17.01.2019 11:00:00 5,5 1,5 5,4 3,6 3,0 4,9 19 10 34 19 WSW 1000,7 45 0 0,0
17.01.2019 10:00:00 5,2 1,6 4,7 3,0 2,9 4,9 23 12 41 22 WSW 1000,2 45 0 0,0
17.01.2019 09:00:00 4,9 1,7 4,2 2,7 2,9 4,9 23 12 43 23 WSW 999,7 40 0 0,0
17.01.2019 08:00:00 5,0 1,4 4,2 2,6 2,8 4,9 24 13 42 23 WSW 999,0 45 0 0,0
17.01.2019 07:00:00 4,7 1,2 3,9 2,4 2,8 4,9 22 12 37 20 WSW 998,8 45 0 0,0
17.01.2019 06:00:00 4,4 0,7 3,6 2,1 2,7 4,9 22 12 36 20 SW 998,5 40 0 0,0
17.01.2019 05:00:00 3,9 0,2 3,2 1,9 2,7 4,9 20 11 36 20 SW 998,5 45 0 0,0
17.01.2019 04:00:00 3,8 0,0 3,0 1,4 2,8 4,8 24 13 41 22 SW 998,6 45 0 0,0
17.01.2019 03:00:00 3,2 -0,2 1,7 1,2 3,0 4,8 19 10 37 20 SW 999,2 45 0 0,0
17.01.2019 02:00:00 2,6 -0,2 1,1 1,3 3,2 4,8 17 9 32 17 SSW 999,5 40 0 0,0
17.01.2019 01:00:00 2,4 -0,1 0,6 1,5 3,5 4,8 15 8 31 17 SSW 1000,2 40 0 0,0
17.01.2019 00:00:00 2,6 -0,1 1,2 2,0 3,7 4,8 16 9 27 15 SW 1001,3 45 0 0,0
16.01.2019 23:00:00 3,1 0,1 1,6 2,6 3,9 4,8 16 9 31 17 SSW 1002,2 45 0 0,0
16.01.2019 22:00:00 3,7 0,3 2,8 3,2 4,0 4,8 16 9 31 17 SW 1002,9 45 0 0,0
16.01.2019 21:00:00 4,7 0,5 4,0 3,8 4,1 4,8 19 10 35 19 SW 1003,7 45 0 0,0
16.01.2019 20:00:00 5,0 0,8 4,5 4,0 4,1 4,8 18 10 39 21 SW 1004,4 45 0 0,0
16.01.2019 19:00:00 5,4 1,4 4,9 4,2 4,2 4,8 20 11 41 22 SW 1004,8 45 0 0,0
16.01.2019 18:00:00 5,8 2,3 5,2 4,4 4,2 4,8 23 12 41 22 SW 1005,1 45 0 0,0
16.01.2019 17:00:00 6,0 3,0 5,4 4,6 4,2 4,8 21 11 38 21 SW 1005,6 40 0 0,0
16.01.2019 16:00:00 6,4 3,1 5,6 4,9 4,1 4,8 22 12 41 22 SW 1005,9 40 0 0,0
16.01.2019 15:00:00 6,6 3,6 5,9 5,2 4,0 4,8 18 10 39 21 SW 1006,3 40 0 0,0
16.01.2019 14:00:00 6,6 3,3 5,9 5,0 3,9 4,8 17 9 35 19 SW 1006,9 38 0 0,0
16.01.2019 13:00:00 6,5 3,4 5,7 4,9 3,8 4,8 23 12 40 22 SW 1007,5 38 0 0,0
16.01.2019 12:00:00 6,3 3,6 5,6 4,6 3,7 4,8 19 10 34 18 SW 1008,1 35 0 0,0
16.01.2019 11:00:00 6,0 3,4 5,1 4,3 3,7 4,8 16 9 37 20 SW 1008,7 26 0 0,0
16.01.2019 10:00:00 6,1 3,8 5,1 4,1 3,6 4,8 23 13 35 19 WSW 1008,8 27 0 0,0
16.01.2019 09:00:00 5,9 3,4 4,8 4,0 3,6 4,8 21 11 37 20 WSW 1008,8 22 0 0,0
16.01.2019 08:00:00 5,8 3,6 4,7 4,0 3,6 4,8 23 12 44 24 WSW 1008,7 25 0 0,0
16.01.2019 07:00:00 5,9 3,6 4,7 4,1 3,5 4,8 26 14 42 23 W 1008,5 25 0 0,0
16.01.2019 06:00:00 6,3 4,5 5,3 4,3 3,4 4,9 25 14 43 23 W 1008,6 16 0 0,0
16.01.2019 05:00:00 6,2 5,0 5,5 4,3 3,3 4,9 26 14 47 25 W 1008,9 15 0 0,3
16.01.2019 04:00:00 6,7 4,9 5,9 4,2 3,2 4,9 32 17 51 28 W 1008,8 20 0 0,0
16.01.2019 03:00:00 6,6 5,1 5,8 4,1 3,1 4,9 29 16 50 27 W 1008,5 22 0 0,0
16.01.2019 02:00:00 6,3 5,1 5,6 4,0 3,0 4,9 32 17 50 27 W 1008,0 22 0 0,0
16.01.2019 01:00:00 6,0 4,9 5,4 3,8 2,9 4,9 31 17 53 28 W 1008,0 22 0 0,1
16.01.2019 00:00:00 5,8 5,0 5,3 3,8 2,7 4,9 28 15 52 28 W 1008,0 10 0 0,2
15.01.2019 23:00:00 5,8 5,2 5,3 3,6 2,5 4,9 29 16 58 32 W 1008,0 12 0 0,5
15.01.2019 22:00:00 5,8 5,1 5,2 3,4 2,4 4,9 33 18 57 31 W 1007,7 10 0 0,0
15.01.2019 21:00:00 5,7 4,9 5,1 3,2 2,2 5,0 33 18 58 31 W 1007,5 10 0 0,1
15.01.2019 20:00:00 5,8 4,5 5,1 2,9 2,0 5,0 38 20 63 34 W 1007,2 18 0 0,0
15.01.2019 19:00:00 5,8 4,0 4,9 2,6 1,7 5,0 35 19 63 34 W 1007,0 18 0 0,0
15.01.2019 18:00:00 5,5 3,7 4,6 2,2 1,5 5,0 37 20 60 32 W 1007,3 20 0 0,0
15.01.2019 17:00:00 4,8 4,0 4,1 1,7 1,3 5,0 34 18 53 29 W 1007,7 9 0 0,1
15.01.2019 16:00:00 4,4 3,6 3,8 1,0 1,2 5,0 30 16 56 30 W 1008,1 8 0 0,3
15.01.2019 15:00:00 4,2 3,1 3,6 0,1 1,2 5,0 29 15 47 25 W 1008,3 8 0 0,1
15.01.2019 14:00:00 3,8 2,9 3,2 0,1 1,2 5,0 28 15 49 27 W 1009,3 18 0 0,0
15.01.2019 13:00:00 4,0 1,5 3,3 0,0 1,2 5,1 29 16 52 28 W 1009,8 35 0 0,0
15.01.2019 12:00:00 3,3 0,6 2,8 0,0 1,2 5,1 27 15 48 26 W 1010,3 30 0 0,0
15.01.2019 11:00:00 2,4 0,2 1,8 0,0 1,3 5,1 32 17 59 32 W 1010,6 30 0 0,0
15.01.2019 10:00:00 2,0 0,1 1,4 0,0 1,3 5,1 39 21 62 34 W 1010,8 30 0 0,0
15.01.2019 09:00:00 2,7 -1,0 1,9 0,0 1,3 5,1 27 15 53 29 W 1010,5 35 0 0,0
15.01.2019 08:00:00 2,7 -1,3 1,9 0,0 1,3 5,1 32 17 49 26 W 1010,8 40 0 0,0
15.01.2019 07:00:00 2,4 -1,0 1,6 0,0 1,4 5,1 32 17 51 28 W 1011,0 40 0 0,0
15.01.2019 06:00:00 2,4 -1,0 1,6 0,0 1,4 5,1 34 18 58 31 W 1011,4 45 0 0,0
15.01.2019 05:00:00 1,3 -1,6 0,2 -0,1 1,4 5,1 32 18 54 29 W 1011,1 45 0 0,0
15.01.2019 04:00:00 1,3 -2,1 -0,1 -0,1 1,5 5,1 29 15 50 27 W 1011,1 45 0 0,0
15.01.2019 03:00:00 1,7 -2,1 0,8 0,0 1,5 5,1 34 19 51 28 W 1010,8 40 0 0,0
15.01.2019 02:00:00 1,7 -2,1 1,0 0,0 1,6 5,1 31 17 54 29 W 1010,3 40 0 0,0
15.01.2019 01:00:00 1,4 -2,0 0,8 0,0 1,7 5,1 32 17 57 31 W 1010,0 45 0 0,0
15.01.2019 00:00:00 0,6 -2,9 0,0 0,0 1,7 5,1 33 18 49 26 W 1009,9 45 0 0,0
14.01.2019 23:00:00 0,1 -3,3 -1,3 0,1 1,8 5,1 29 16 51 28 W 1009,7 45 0 0,0
14.01.2019 22:00:00 0,1 -3,4 -1,2 0,1 1,9 5,1 30 16 50 27 W 1009,7 45 0 0,0
14.01.2019 21:00:00 0,4 -3,7 -1,0 0,2 2,1 5,1 32 17 49 26 W 1009,1 45 0 0,0
14.01.2019 20:00:00 0,1 -4,3 -1,3 0,3 2,2 5,1 29 16 48 26 W 1008,4 50 0 0,0
14.01.2019 19:00:00 0,1 -5,0 -1,7 0,5 2,3 5,1 31 17 46 25 WNW 1007,7 50 0 0,0
14.01.2019 18:00:00 0,1 -5,3 -1,4 0,6 2,4 5,1 26 14 44 24 W 1007,1 50 0 0,0
14.01.2019 17:00:00 0,9 -6,3 -0,5 0,7 2,6 5,1 31 17 61 33 WNW 1006,1 50 20 0,0
14.01.2019 16:00:00 1,7 -6,5 0,5 1,2 2,7 5,1 32 17 65 35 WNW 1004,8 50 37 0,0
14.01.2019 15:00:00 2,2 -6,1 1,5 2,1 2,7 5,1 46 25 71 39 NW 1003,2 45 8 0,0
14.01.2019 14:00:00 2,8 -5,0 2,6 2,3 2,6 5,1 36 19 59 32 WNW 1002,1 45 5 0,0
14.01.2019 13:00:00 3,0 -4,6 2,9 2,1 2,6 5,1 36 20 73 39 WNW 1001,6 40 44 0,0
14.01.2019 12:00:00 2,8 -4,9 1,8 0,8 2,7 5,1 39 21 63 34 WNW 1001,0 45 56 0,0
14.01.2019 11:00:00 2,4 -4,2 1,2 0,8 2,8 5,1 33 18 57 31 WNW 1001,0 45 51 0,0
14.01.2019 10:00:00 1,9 -4,0 0,7 0,9 3,0 5,0 32 18 56 30 WNW 1000,6 40 3 0,0
14.01.2019 09:00:00 1,8 -3,3 0,7 1,0 3,3 5,0 35 19 69 38 WNW 999,6 30 0 0,0
14.01.2019 08:00:00 2,3 -3,2 1,3 1,1 3,5 5,0 43 23 71 38 WNW 997,8 30 0 0,0
14.01.2019 07:00:00 2,2 -3,6 1,0 1,5 3,8 5,0 32 18 57 31 WNW 997,2 35 0 0,0
14.01.2019 06:00:00 2,5 -3,3 1,2 2,3 4,1 5,0 39 21 69 37 WNW 997,0 40 0 0,0
14.01.2019 05:00:00 3,7 -0,9 3,3 3,1 4,2 5,0 42 23 63 34 WNW 995,4 28 0 0,0
14.01.2019 04:00:00 4,2 -0,5 3,6 3,4 4,3 5,0 41 22 69 37 WNW 993,9 28 0 0,0
14.01.2019 03:00:00 4,4 0,0 3,6 3,6 4,4 5,0 44 24 74 40 WNW 992,3 25 0 0,0
14.01.2019 02:00:00 4,8 0,0 3,9 3,8 4,6 5,0 35 19 82 44 WNW 990,9 30 0 0,0
14.01.2019 01:00:00 5,1 2,4 3,9 4,1 4,7 5,0 34 19 69 38 WNW 989,4 40 0 0,0
14.01.2019 00:00:00 6,1 3,0 5,1 4,5 4,8 4,9 39 21 66 35 W 988,4 45 0 0,0
13.01.2019 23:00:00 5,8 3,5 4,6 4,6 4,8 4,9 33 18 59 32 W 988,3 40 0 0,0
13.01.2019 22:00:00 5,6 4,2 5,0 5,0 4,9 4,9 29 16 61 33 W 988,3 40 0 0,2
13.01.2019 21:00:00 6,1 4,1 5,3 5,2 4,9 4,9 31 17 62 33 W 988,1 25 0 0,0
13.01.2019 20:00:00 6,2 4,7 5,3 5,5 4,9 4,9 40 21 62 34 WNW 987,7 45 0 2,3
13.01.2019 19:00:00 7,4 6,9 7,0 5,8 4,8 4,9 26 14 51 28 W 987,3 15 0 1,9
13.01.2019 18:00:00 7,6 6,9 7,0 5,6 4,7 4,9 25 13 46 25 W 988,7 35 0 0,0
13.01.2019 17:00:00 7,4 7,0 6,7 5,7 4,7 4,9 30 16 46 25 W 990,0 30 0 0,0
13.01.2019 16:00:00 7,3 6,8 6,9 5,6 4,6 4,9 28 15 47 26 W 991,2 22 0 0,1
13.01.2019 15:00:00 6,6 6,1 6,4 5,5 4,5 4,9 27 14 51 28 W 992,1 10 0 0,1
13.01.2019 14:00:00 5,9 5,4 5,8 5,4 4,3 4,9 27 15 46 25 WSW 993,2 8 0 0,5
13.01.2019 13:00:00 5,5 5,0 5,4 5,3 4,2 4,9 27 15 48 26 WSW 995,2 8 0 0,5
13.01.2019 12:00:00 5,8 4,9 5,6 5,1 4,1 4,9 26 14 46 25 WSW 996,9 20 0 0,2
13.01.2019 11:00:00 5,8 5,1 5,5 4,7 4,0 4,8 24 13 45 24 WSW 998,9 9 0 0,4
13.01.2019 10:00:00 5,9 4,6 5,3 4,4 3,9 4,8 26 14 42 23 WSW 1000,1 20 0 0,0
13.01.2019 09:00:00 5,6 4,2 4,9 4,2 3,9 4,8 24 13 43 23 WSW 1000,9 35 0 0,0
13.01.2019 08:00:00 5,4 4,1 4,7 4,1 3,9 4,8 27 14 44 24 W 1001,5 35 0 0,0
13.01.2019 07:00:00 5,2 4,2 4,6 4,0 3,9 4,8 24 13 39 21 W 1002,0 22 0 0,1
13.01.2019 06:00:00 5,1 4,2 4,6 4,0 3,8 4,8 24 13 41 22 W 1002,3 25 0 0,0
13.01.2019 05:00:00 5,1 4,3 4,6 4,0 3,8 4,8 24 13 44 24 W 1002,7 25 0 0,0
13.01.2019 04:00:00 5,0 4,1 4,5 4,0 3,8 4,8 26 14 49 26 W 1002,9 20 0 0,0
13.01.2019 03:00:00 5,2 3,8 4,5 4,0 3,8 4,8 27 15 59 32 W 1003,2 40 0 0,0
13.01.2019 02:00:00 5,2 3,8 4,5 4,0 3,8 4,8 31 17 49 27 W 1003,0 25 0 0,0
13.01.2019 01:00:00 5,5 3,9 4,8 4,0 3,8 4,8 27 15 51 27 W 1003,0 35 0 0,0
13.01.2019 00:00:00 5,4 4,1 4,7 4,0 3,7 4,8 28 15 45 24 W 1003,4 35 0 0,0
12.01.2019 23:00:00 5,1 4,4 4,6 3,9 3,7 4,8 28 15 47 25 W 1003,9 25 0 0,3
12.01.2019 22:00:00 5,2 4,3 4,6 3,9 3,7 4,8 24 13 44 24 W 1004,2 20 0 0,0
12.01.2019 21:00:00 5,2 4,5 4,6 3,8 3,7 4,8 25 13 49 26 W 1004,6 25 0 0,0
12.01.2019 20:00:00 5,0 4,4 4,6 4,0 3,8 4,8 23 12 44 24 W 1005,0 20 0 0,0
12.01.2019 19:00:00 4,6 4,1 4,3 4,0 3,8 4,8 26 14 44 24 WSW 1005,2 4,0 0 0,2
12.01.2019 18:00:00 4,3 3,7 4,1 4,0 3,8 4,8 29 16 50 27 WSW 1005,6 12 0 1,7
12.01.2019 17:00:00 4,4 3,8 4,1 4,2 3,8 4,8 22 12 41 22 WSW 1006,6 12 0 0,2
12.01.2019 16:00:00 4,3 3,7 4,1 4,4 3,7 4,8 25 13 41 22 WSW 1007,5 6 0 0,6
12.01.2019 15:00:00 5,0 3,1 4,5 4,8 3,6 4,8 20 11 53 28 WSW 1008,8 10 0 0,0
12.01.2019 14:00:00 5,7 3,3 5,2 5,1 3,4 4,8 23 13 45 24 WSW 1009,8 50 0 0,0
12.01.2019 13:00:00 5,3 4,3 5,2 4,7 3,2 4,8 26 14 51 28 W 1011,1 40 0 0,4
12.01.2019 12:00:00 5,4 4,4 5,0 4,3 3,0 4,8 23 13 45 24 W 1012,1 25 0 0,1

tt = Température de l'air
td = dewpoint
tt 5cm = Température de l'air 5cm
tt -5cm = Température de l'air -5cm
tt -20cm = Température de l'air -20cm
tt -100cm = Température de l'air -100cm
ff = Vitesse du vent
fx = gusts
dd = Direction du vent
ppp = reduced air pressure
vv = visibility
sd = Ensoleillement
rr = Quantités de précipitations

stations d'obs. à proximité